User: anonymous   Login
Location: Unspecified
(0.0000°N, 0.0000°E)
Time: 18:54:27
(UTC+00:00)
Language:

NEE 01 PEGASUS - Orbit

View from above orbital plane
View from above orbital plane
View from above satellite
View from above satellite

Ground track
Ground track

The orbit data is extracted from the following two-line orbital elements,

1 39151U 13018B   17145.24605114 +.00000214 +00000-0 +35416-4 0  9993
2 39151 097.9828 236.9106 0018446 122.3698 237.9302 14.79706496220143
Epoch (UTC): 25 May 2017 05:54:18
Eccentricity: 0.0018446
inclination: 97.9828°
perigee height: 617 km
apogee height: 643 km
right ascension of ascending node: 236.9106°
argument of perigee: 122.3698°
revolutions per day: 14.79706496
mean anomaly at epoch: 237.9302°
orbit number at epoch: 22014

The dashed part of the orbit path shows where the satellite is in the earth's shadow,  

DLR